Погода в Кабале

Погода в Кабале : погода сейчас, прогноз погоды и архив. Всё, что Вы хотите узнать о погоде в Кабале!

Поиск расширенной информации на нашем сайте:

Другие новости

Новости СМИ2

Главная страница сайта

Новости сайта

03.07.2017

Напоминаем, что на нашем специализированном сайте Метеоцентр.Азия вы можете получить высокодетализированные автоматические прогнозы погоды по пунктам России, СНГ и мира в авиационном формате (включающие направление и скорость ветра, видимость, явления погоды, количество и форму облачности, нижнюю и верхнюю границу облачности).


Погода в Кабале - сегодня

Время (UTC), дата Ветер
(°,м/с) 
Видим.   Явления Облачность Т
(°С)
Тd
(°С)
f(%) Тe
(°С)
Pmin
(гПа)
dP
(гПа)
Po
(мм)
O2
(г/м3)
Тmin Tmax R s Состояние
почвы
12 19.05.18 270 (З) 20000 м    3/0 средняя 
[Ac trans]
+25.7 +11.4 41 +30  1015.4  -1.2  705  258           
15 19.05.18 180 (Ю) 20000 м    4/0 средняя 
[Ac trans]
+19.1 +10.6 58 +23  1017  -0.1  705  263           
21 19.05.18 360 (С) 20000 м    ясно 
+17.1 +9.3 60 +19  1018.3  706  266           
00 20.05.18 360 (С) 20000 м    ясно 
+16.5 +7.6 56 +17  1018.3  -0.2  705  267           
03 20.05.18 360 (С) 20000 м    ясно 
+18.1 +8.2 52 +19  1017.6  -0.2  705  265           
06 20.05.18 090 (В) 20000 м    5/0 средняя 
[Ac trans]
+22.1 +11.1 50 +26  1016.8  0.3  705  261  +16.3         
09 20.05.18 160 (Ю) 20000 м    4/0 средняя 
[Ac trans]
+25.3 +8.1 33 +25  1015.4  -0.4  705  259           
12 20.05.18 180 (Ю) 20000 м    6/0 средняя 
[Ac und]
+26.7 +6.5 28 +27  1014.1  -1.1  704  257           
15 20.05.18 160 (Ю) 20000 м    6/0 средняя 
[Ac und]
+23.3 +10.7 45 +27  1014.7  -0.1  704  259           
21 20.05.18 050 (СВ) 20000 м    ясно 
+20.3 +5.6 38 +20  1016.2  0.1  705  263           
00 21.05.18 050 (СВ) 4000 м    9/9 1000 м 
[Sc]
+19 +6.1 43 +19  1015.3  -1.1  704  264           
03 21.05.18 050 (СВ) 20000 м    8/8 1000 м 
[Sc]
+17.9 +8 52 +19  1015.8  0.2  704  265           
06 21.05.18 360 (С) 20000 м    9/9 1000 м 
[Sc]
+19.5 +13.3 67 +28  1016.2  0.9  705  262  +17.7         
09 21.05.18 020 (С) 20000 м    9/9 1000 м 
[Sc]
+22.3 +13.1 56 +29  1015.5  705  260           
12 21.05.18 200 (Ю) 20000 м    6/6 1000 м 
[Sc]
+26.7 +15.6 51 +38  1012.9  -1.2  704  255           
15 21.05.18 160 (Ю) 20000 м    8/8 1000 м 
[Sc]
+23.7 +12.5 49 +30  1013.8  704  258           
18 21.05.18 050 (СВ) 20000 м    4/4 1000 м 
[Sc]
+20.7 +9.9 50 +23  1015.9  1.1  705  262    +27.2       
21 21.05.18 090 (В) 20000 м    4/4 1000 м 
[Sc]
+20.1 +9.7 51 +22  1018.6  0.5  705  263           
00 22.05.18 090 (В) 10 км    10/10 600 м 
[Sc]
+20.5 +9.9 51 +23  1016.1  -0.4  705  262           
03 22.05.18 090 (В) 20000 м    10/10 1000 м 
[Sc]
+19.3 +10.2 56 +23  1018.4  1.9  706  264           
06 22.05.18 180 (Ю) 20000 м    8/8 1000 м 
[Sc]
+25.5 +11.2 41 +30  1017.7  0.9  707  258  +19.1         
09 22.05.18 230 (ЮЗ) 20000 м    6/6 1000 м 
[Sc]
+27.4 +11.8 38 +32  1017.6  0.3  707  257           
12 22.05.18 090 (В) 20000 м    9/9 1000 м 
[Sc]
+26.2 +9.3 34 +28  1017.5  -0.3  707  258           
15 22.05.18 140 (ЮВ) 20000 м    5/5 1000 м 
[Sc]
+25.3 +14.2 50 +34  1017.5  -0.1  707  258           
21 22.05.18 050 (СВ) 20000 м    ясно 
+21.6 +2.9 29 +22  1019.3  707  263           
Время (UTC), дата Ветер
(°,м/с) 
Видим.   Явления Облачность Т
(°С)
Тd
(°С)
f(%) Тe
(°С)
Pmin
(гПа)
dP
(гПа)
Po
(мм)
O2
(г/м3)
Тmin Tmax R s Состояние
почвы

Для получения пояснительной информации подведите курсор к названию столбца.

ПОГОДА в Кабале - архив

Всё, что Вы хотите узнать о погоде в Кабале - удобно и подробно!

Выберите нужную дату (начиная с 1 января 2015* года) и нажмите кнопку "Найти".
Будут отображены архивные сводки погоды по пункту Кабала, начиная с указанной даты.


Отображать данные в формате CSV (для использования в таблицах Excel)


Внимание! Наш архив погоды предназначен исключительно для личного некоммерческого использования в познавательных целях. Если Вам необходимы официальные справки о состоянии погоды (для производственных, юридических, коммерческих и т.п. целей), обращайтесь в органы Росгидромета.

*Примечание: данная дата относится к архиву по метеостанциям СССР (Россия, СНГ, Балтия).
Архив по метеостанциям Зарубежной Европы и Азии (кроме Китая) хранится 10 дней, по другим регионам земного шара (Китай, Африка, Америка, Австралия, Океания) - 1 день.

Кабала - район местоположения метеостанции


Название, широта, долгота, высота метеостанции:
Кабала 41°ш. 47.9°д. 682 м над ур. моря [Азербайджан]

Дополнительная информация

В oтличие oт бoльшинства пoгoдных сайтoв мы публикуем пoдрoбную метеoинфoрмацию в детальнoм прoфессиoнальнoм фoрмате.

Характеристики температуры и влажнoсти вoздуха измеряются на высoте 2 м в тени вдали oт зданий и деревьев.
Скoрoсть ветра измеряется на высoте 10 м (на урoвне рoста челoвека скoрoсть ветра ниже в 1.5-2 раза). Если метеoстанция нахoдится в гoрoде или в лесу, тo скoрoсть ветра занижена на 2-4 м/с пo сравнению с oткрытым местoм. Скoрoсть ветра над акватoриями крупных рек и oзёр, а также на вершинах хoлмoв на 2-5 м/с выше, чем в oбычных услoвиях.
Атмoсфернoе давление в разных тoчках местнoсти мoжет значительнo oтличаться oт давления на метеoстанции, в зависимoсти oт услoвий рельефа (при пoдъёме на 10 м давление пoнижается примернo на 1 мм рт.ст.).